CW4141 Weather Reports


Display with metric or nautical units.
time (UTC)temp
F
wind
direction
speed
MPH
gust
MPH
rain 1hr
in
rain 24hr
in
rain mn
in
humidity
%
barometer
mb
20260504024615 59 138 1.0 7.0 0.00 0.02 0.02 67 1011.8
20260504024553 59 138 1.0 8.0 0.00 0.02 0.02 67 1015.0
20260504023057 60 195 1.0 6.0 0.00 0.02 0.02 64 1011.4
20260504023049 60 0 1.0 7.0 0.00 0.02 0.02 63 1014.7
20260504021556 61 225 2.0 7.0 0.00 0.02 0.02 62 1011.3
20260504021552 61 224 1.0 6.0 0.00 0.02 0.02 62 1014.6
20260504020109 61 205 0.0 7.0 0.00 0.02 0.02 61 1014.3
20260504020055 61 205 1.0 6.0 0.00 0.02 0.02 62 1011.0
20260504014601 62 190 0.0 6.0 0.00 0.02 0.02 61 1010.7
20260504014552 62 0 1.0 9.0 0.00 0.02 0.02 60 1014.1
20260504013056 63 155 0.0 4.0 0.00 0.02 0.02 60 1010.7
20260504013048 63 0 0.0 6.0 0.00 0.02 0.02 60 1013.9
20260504011552 65 0 0.0 6.0 0.00 0.02 0.02 58 1013.9
20260504010057 66 194 0.0 5.0 0.00 0.02 0.02 57 1010.1
20260504010053 66 194 0.0 5.0 0.00 0.02 0.02 56 1013.5
20260504004553 66 0 0.0 5.0 0.00 0.02 0.02 55 1013.3
20260504004551 66 204 0.0 5.0 0.00 0.02 0.02 56 1010.1
20260504003054 67 114 1.0 5.0 0.00 0.02 0.02 54 1009.9
20260504001554 69 191 1.0 5.0 0.00 0.02 0.02 52 1012.9
20260504001550 69 191 0.0 5.0 0.00 0.02 0.02 53 1009.5
20260504000116 69 209 0.0 4.0 0.00 0.02 0.02 53 1009.5
20260504000053 69 0 1.0 6.0 0.00 0.02 0.02 53 1013.0
20260503234615 69 198 1.0 5.0 0.00 0.02 0.02 54 1012.9
20260503234554 69 198 0.0 5.0 0.00 0.02 0.02 54 1009.8
20260503233050 69 220 1.0 6.0 0.00 0.02 0.02 53 1013.3
20260503233047 69 220 2.0 6.0 0.00 0.02 0.02 53 1009.7
20260503231552 70 0 1.0 6.0 0.00 0.02 0.02 53 1013.2
20260503231547 70 169 1.0 6.0 0.00 0.02 0.02 53 1010.0
20260503230051 69 0 2.0 9.0 0.00 0.02 0.02 54 1013.4
20260503230046 69 146 0.0 8.0 0.00 0.02 0.02 55 1010.1
20260503224550 70 0 1.0 13.0 0.00 0.02 0.02 54 1013.5
20260503224545 70 136 2.0 12.0 0.00 0.02 0.02 54 1010.3
20260503223053 69 216 1.0 9.0 0.00 0.02 0.02 56 1013.8
20260503223042 69 216 1.0 8.0 0.00 0.02 0.02 56 1010.4
20260503221557 69 204 3.0 8.0 0.00 0.02 0.02 56 1013.9
20260503221550 69 204 2.0 7.0 0.00 0.02 0.02 56 1010.5
20260503220051 67 0 1.0 6.0 0.00 0.02 0.02 60 1013.9
20260503220039 67 160 0.0 4.0 0.00 0.02 0.02 60 1010.6
20260503214549 66 0 0.0 6.0 0.00 0.02 0.02 61 1014.1
20260503214541 66 161 1.0 5.0 0.00 0.02 0.02 61 1010.9
20260503213053 66 159 1.0 7.0 0.00 0.02 0.02 63 1014.1
20260503213032 66 159 2.0 6.0 0.00 0.02 0.02 64 1011.0
20260503211600 65 198 1.0 7.0 0.00 0.02 0.02 64 1014.2
20260503211530 65 198 1.0 5.0 0.00 0.02 0.02 65 1011.0
20260503210054 65 170 1.0 7.0 0.00 0.02 0.02 66 1014.2
20260503210027 65 170 0.0 6.0 0.00 0.02 0.02 67 1011.0
20260503204557 64 0 0.0 6.0 0.00 0.02 0.02 69 1014.4
20260503204524 64 161 1.0 5.0 0.00 0.02 0.02 69 1011.2
20260503203100 63 0 0.0 6.0 0.00 0.02 0.02 70 1014.5
20260503203033 63 153 0.0 5.0 0.00 0.02 0.02 71 1011.3
20260503201553 63 0 0.0 3.0 0.00 0.02 0.02 73 1014.5
20260503201519 63 153 0.0 3.0 0.00 0.02 0.02 73 1011.4
20260503200055 62 153 0.0 3.0 0.00 0.02 0.02 75 1014.6
20260503200018 62 153 0.0 3.0 0.00 0.02 0.02 75 1011.4
20260503194559 61 0 1.0 5.0 0.00 0.02 0.02 77 1014.7
20260503194515 61 153 1.0 4.0 0.00 0.02 0.02 78 1011.6
20260503193053 61 153 0.0 3.0 0.00 0.02 0.02 79 1015.1
20260503193017 61 153 0.0 3.0 0.00 0.02 0.02 79 1011.8
20260503191553 61 0 0.0 5.0 0.00 0.02 0.02 79 1015.1
20260503191511 61 153 0.0 3.0 0.00 0.02 0.02 80 1011.9
20260503190050 61 0 0.0 2.0 0.00 0.02 0.02 81 1015.2
20260503190010 61 152 0.0 2.0 0.00 0.02 0.02 82 1011.9
20260503184550 60 0 0.0 5.0 0.00 0.02 0.02 82 1015.2
20260503184509 60 152 0.0 4.0 0.00 0.02 0.02 83 1011.9
20260503183057 60 0 0.0 2.0 0.00 0.02 0.02 84 1015.3
20260503183006 60 152 0.0 2.0 0.00 0.02 0.02 85 1011.9
20260503181557 59 0 0.0 6.0 0.00 0.02 0.02 84 1015.2
20260503181505 59 151 0.0 5.0 0.00 0.02 0.02 85 1011.9
20260503180100 59 0 1.0 5.0 0.00 0.02 0.02 85 1015.3
20260503180003 59 151 1.0 4.0 0.00 0.02 0.02 86 1011.9
20260503174559 59 151 0.0 2.0 0.00 0.02 0.02 86 1015.4
20260503174506 59 151 0.0 1.0 0.00 0.02 0.02 87 1011.9
20260503173107 59 0 0.0 2.0 0.00 0.02 0.02 88 1015.2
20260503173001 59 151 0.0 2.0 0.00 0.02 0.02 89 1011.8
20260503171601 58 151 1.0 4.0 0.00 0.02 0.02 90 1011.7
20260503171552 58 151 1.0 5.0 0.00 0.02 0.02 90 1015.1
20260503110108 57 0 0.0 1.0 0.00 0.00 0.00 92 1013.4
20260503081553 57 0 0.0 4.0 0.00 0.00 0.00 90 1014.5
20260503081522 57 150 0.0 4.0 0.00 0.00 0.00 91 1010.9
20260503071610 57 148 1.0 6.0 0.00 0.00 0.00 89 1014.8
20260503071514 57 148 1.0 4.0 0.00 0.00 0.00 89 1010.9
20260503060125 59 145 0.0 3.0 0.00 0.00 0.00 85 1014.1
20260503054601 59 0 0.0 4.0 0.00 0.00 0.00 84 1014.2
20260503054510 59 145 0.0 2.0 0.00 0.00 0.00 84 1010.3
20260503053058 60 145 0.0 3.0 0.00 0.00 0.00 82 1014.0
20260503053011 60 145 0.0 3.0 0.00 0.00 0.00 83 1010.2
20260503051552 60 0 0.0 4.0 0.00 0.00 0.00 81 1013.9
20260503051508 60 145 0.0 4.0 0.00 0.00 0.00 82 1010.2
20260503050057 61 0 0.0 3.0 0.00 0.00 0.00 80 1013.8
20260503050008 61 144 0.0 3.0 0.00 0.00 0.00 80 1009.8
20260503044551 62 144 0.0 4.0 0.00 0.00 0.00 79 1013.7
20260503044515 62 144 0.0 4.0 0.00 0.00 0.00 79 1009.8
20260503043053 62 144 0.0 4.0 0.00 0.00 0.00 78 1013.4
20260503043007 62 144 0.0 4.0 0.00 0.00 0.00 78 1009.6
20260503041552 63 144 0.0 3.0 0.00 0.00 0.00 76 1013.2
20260503041507 63 144 0.0 2.0 0.00 0.00 0.00 76 1009.3
20260503040113 64 144 0.0 3.0 0.00 0.00 0.00 74 1013.1
20260503040006 64 144 0.0 3.0 0.00 0.00 0.00 74 1009.2
20260503034554 65 0 0.0 4.0 0.00 0.00 0.00 72 1012.7
20260503034506 65 143 0.0 4.0 0.00 0.00 0.00 72 1008.9
20260503033053 66 0 0.0 3.0 0.00 0.00 0.00 70 1012.6
20260503033005 66 143 0.0 3.0 0.00 0.00 0.00 70 1008.7
20260503031602 67 142 0.0 3.0 0.00 0.00 0.00 68 1012.4
20260503031504 67 142 0.0 3.0 0.00 0.00 0.00 68 1008.6
20260503030054 68 0 0.0 4.0 0.00 0.00 0.00 66 1012.3
20260503030005 68 142 0.0 4.0 0.00 0.00 0.00 66 1008.4